Time,TemperatureF,DewpointF,PressureIn,WindDirection,WindDirectionDegrees,WindSpeedMPH,WindSpeedGustMPH,Humidity,HourlyPrecipIn,Conditions,Clouds,dailyrainin,SoftwareType,DateUTC
2013-04-30 00:02:00,56.2,29.6,29.38,NNW,331,0.0,0.0,36,0.00,,,0.00,Wunderground v.1.15,2013-04-30 06:02:00,
2013-04-30 00:07:00,55.3,29.4,29.38,NNW,331,0.0,0.0,37,0.00,,,0.00,Wunderground v.1.15,2013-04-30 06:07:00,
2013-04-30 00:12:00,54.7,29.6,29.38,NNW,331,0.0,0.0,38,0.00,,,0.00,Wunderground v.1.15,2013-04-30 06:12:00,
2013-04-30 00:17:00,53.6,27.3,29.38,NNW,331,0.0,4.0,36,0.00,,,0.00,Wunderground v.1.15,2013-04-30 06:17:00,
2013-04-30 00:22:00,53.6,28.6,29.38,NNW,331,0.0,1.0,38,0.00,,,0.00,Wunderground v.1.15,2013-04-30 06:22:00,
2013-04-30 00:27:00,53.2,28.2,29.38,NNW,331,0.0,1.0,38,0.00,,,0.00,Wunderground v.1.15,2013-04-30 06:27:00,
2013-04-30 00:32:00,53.2,27.6,29.38,NNW,331,0.0,0.0,37,0.00,,,0.00,Wunderground v.1.15,2013-04-30 06:32:00,
2013-04-30 00:37:00,53.3,28.3,29.38,NNW,331,0.0,0.0,38,0.00,,,0.00,Wunderground v.1.15,2013-04-30 06:37:00,
2013-04-30 00:42:00,53.1,27.5,29.38,NNW,331,0.0,0.0,37,0.00,,,0.00,Wunderground v.1.15,2013-04-30 06:42:00,
2013-04-30 00:47:00,52.3,28.1,29.38,NNW,331,1.0,3.0,39,0.00,,,0.00,Wunderground v.1.15,2013-04-30 06:47:00,
2013-04-30 00:52:00,52.0,27.1,29.38,NNW,331,0.0,0.0,38,0.00,,,0.00,Wunderground v.1.15,2013-04-30 06:52:00,
2013-04-30 00:57:00,51.9,27.7,29.38,NNW,331,0.0,0.0,39,0.00,,,0.00,Wunderground v.1.15,2013-04-30 06:57:00,
2013-04-30 01:02:00,51.9,28.9,29.38,NNW,331,0.0,0.0,41,0.00,,,0.00,Wunderground v.1.15,2013-04-30 07:02:00,
2013-04-30 01:07:00,51.6,30.9,29.37,NNW,331,0.0,3.0,45,0.00,,,0.00,Wunderground v.1.15,2013-04-30 07:07:00,
2013-04-30 01:12:00,51.6,30.9,29.37,NNW,331,0.0,1.0,45,0.00,,,0.00,Wunderground v.1.15,2013-04-30 07:12:00,
2013-04-30 01:17:00,51.0,29.8,29.37,NNW,331,0.0,2.0,44,0.00,,,0.00,Wunderground v.1.15,2013-04-30 07:17:00,
2013-04-30 01:22:00,51.1,29.9,29.38,NNW,331,0.0,3.0,44,0.00,,,0.00,Wunderground v.1.15,2013-04-30 07:22:00,
2013-04-30 01:27:00,51.1,30.5,29.38,NNW,331,0.0,3.0,45,0.00,,,0.00,Wunderground v.1.15,2013-04-30 07:27:00,
2013-04-30 01:32:00,51.6,29.8,29.38,NNW,331,0.0,0.0,43,0.00,,,0.00,Wunderground v.1.15,2013-04-30 07:32:00,
2013-04-30 01:38:00,51.4,29.6,29.38,NNW,331,0.0,2.0,43,0.00,,,0.00,Wunderground v.1.15,2013-04-30 07:38:00,
2013-04-30 01:43:00,51.6,31.5,29.38,NNW,331,0.0,2.0,46,0.00,,,0.00,Wunderground v.1.15,2013-04-30 07:43:00,
2013-04-30 01:48:00,51.3,30.7,29.38,NNW,331,0.0,0.0,45,0.00,,,0.00,Wunderground v.1.15,2013-04-30 07:48:00,
2013-04-30 01:53:00,51.1,30.5,29.38,NNW,331,0.0,0.0,45,0.00,,,0.00,Wunderground v.1.15,2013-04-30 07:53:00,
2013-04-30 01:58:00,50.7,30.7,29.38,NNW,331,0.0,0.0,46,0.00,,,0.00,Wunderground v.1.15,2013-04-30 07:58:00,
2013-04-30 02:03:00,50.5,31.0,29.38,NNW,331,0.0,0.0,47,0.00,,,0.00,Wunderground v.1.15,2013-04-30 08:03:00,
2013-04-30 02:08:00,50.1,31.7,29.38,NNW,331,0.0,0.0,49,0.00,,,0.00,Wunderground v.1.15,2013-04-30 08:08:00,
2013-04-30 02:13:00,49.9,31.5,29.38,NNW,331,0.0,0.0,49,0.00,,,0.00,Wunderground v.1.15,2013-04-30 08:13:00,
2013-04-30 02:18:00,49.4,31.0,29.38,NNW,331,0.0,0.0,49,0.00,,,0.00,Wunderground v.1.15,2013-04-30 08:18:00,
2013-04-30 02:23:00,48.6,31.3,29.39,NNW,331,0.0,0.0,51,0.00,,,0.00,Wunderground v.1.15,2013-04-30 08:23:00,
2013-04-30 02:28:00,48.2,30.9,29.39,NNW,331,0.0,0.0,51,0.00,,,0.00,Wunderground v.1.15,2013-04-30 08:28:00,
2013-04-30 02:33:00,47.4,30.6,29.39,NNW,331,0.0,0.0,52,0.00,,,0.00,Wunderground v.1.15,2013-04-30 08:33:00,
2013-04-30 02:38:00,47.1,30.8,29.39,NNW,331,0.0,0.0,53,0.00,,,0.00,Wunderground v.1.15,2013-04-30 08:38:00,
2013-04-30 02:43:00,46.5,30.7,29.39,NNW,331,0.0,0.0,54,0.00,,,0.00,Wunderground v.1.15,2013-04-30 08:43:00,
2013-04-30 02:48:00,46.2,31.4,29.39,NNW,331,0.0,0.0,56,0.00,,,0.00,Wunderground v.1.15,2013-04-30 08:48:00,
2013-04-30 02:53:00,46.4,31.5,29.38,NNW,331,0.0,0.0,56,0.00,,,0.00,Wunderground v.1.15,2013-04-30 08:53:00,
2013-04-30 02:58:00,46.2,32.2,29.38,NNW,331,0.0,0.0,58,0.00,,,0.00,Wunderground v.1.15,2013-04-30 08:58:00,
2013-04-30 03:03:00,46.2,32.2,29.38,NNW,331,0.0,0.0,58,0.00,,,0.00,Wunderground v.1.15,2013-04-30 09:03:00,
2013-04-30 03:08:00,45.5,30.7,29.39,NNW,331,0.0,0.0,56,0.00,,,0.00,Wunderground v.1.15,2013-04-30 09:08:00,
2013-04-30 03:13:00,44.6,31.1,29.39,NNW,331,0.0,0.0,59,0.00,,,0.00,Wunderground v.1.15,2013-04-30 09:13:00,
2013-04-30 03:18:00,44.3,31.7,29.39,NNW,331,0.0,0.0,61,0.00,,,0.00,Wunderground v.1.15,2013-04-30 09:18:00,
2013-04-30 03:23:00,43.9,31.7,29.41,NNW,331,0.0,0.0,62,0.00,,,0.00,Wunderground v.1.15,2013-04-30 09:23:00,
2013-04-30 03:28:00,43.5,31.3,29.41,NNW,331,0.0,0.0,62,0.00,,,0.00,Wunderground v.1.15,2013-04-30 09:28:00,
2013-04-30 03:33:00,43.3,31.5,29.41,NNW,331,0.0,0.0,63,0.00,,,0.00,Wunderground v.1.15,2013-04-30 09:33:00,
2013-04-30 03:38:00,42.6,30.9,29.42,NNW,331,0.0,0.0,63,0.00,,,0.00,Wunderground v.1.15,2013-04-30 09:38:00,
2013-04-30 03:43:00,42.3,31.0,29.42,NNW,331,0.0,0.0,64,0.00,,,0.00,Wunderground v.1.15,2013-04-30 09:43:00,
2013-04-30 03:48:00,42.2,30.9,29.42,NNW,331,0.0,0.0,64,0.00,,,0.00,Wunderground v.1.15,2013-04-30 09:48:00,
2013-04-30 03:53:00,41.9,30.2,29.43,NNW,331,0.0,2.0,63,0.00,,,0.00,Wunderground v.1.15,2013-04-30 09:53:00,
2013-04-30 03:58:00,42.1,30.8,29.43,NNW,331,0.0,2.0,64,0.00,,,0.00,Wunderground v.1.15,2013-04-30 09:58:00,
2013-04-30 04:03:00,42.1,30.8,29.43,NNW,331,0.0,0.0,64,0.00,,,0.00,Wunderground v.1.15,2013-04-30 10:03:00,
2013-04-30 04:08:00,41.8,30.1,29.42,NNW,331,0.0,0.0,63,0.00,,,0.00,Wunderground v.1.15,2013-04-30 10:08:00,
2013-04-30 04:13:00,41.8,30.5,29.42,NNW,331,0.0,0.0,64,0.00,,,0.00,Wunderground v.1.15,2013-04-30 10:13:00,
2013-04-30 04:18:00,42.2,30.9,29.42,NNW,331,0.0,0.0,64,0.00,,,0.00,Wunderground v.1.15,2013-04-30 10:18:00,
2013-04-30 04:23:00,42.3,31.4,29.43,NNW,331,0.0,0.0,65,0.00,,,0.00,Wunderground v.1.15,2013-04-30 10:23:00,
2013-04-30 04:28:00,42.3,31.7,29.43,NNW,331,0.0,3.0,66,0.00,,,0.00,Wunderground v.1.15,2013-04-30 10:28:00,
2013-04-30 04:33:00,42.2,31.6,29.43,NNW,331,0.0,0.0,66,0.00,,,0.00,Wunderground v.1.15,2013-04-30 10:33:00,
2013-04-30 04:38:00,42.1,31.6,29.43,NNW,331,0.0,0.0,66,0.00,,,0.00,Wunderground v.1.15,2013-04-30 10:38:00,
2013-04-30 04:43:00,41.6,30.7,29.43,NNW,331,0.0,0.0,65,0.00,,,0.00,Wunderground v.1.15,2013-04-30 10:43:00,
2013-04-30 04:48:00,41.2,30.7,29.43,NNW,331,0.0,0.0,66,0.00,,,0.00,Wunderground v.1.15,2013-04-30 10:48:00,
2013-04-30 04:53:00,40.9,30.0,29.44,NNW,331,0.0,3.0,65,0.00,,,0.00,Wunderground v.1.15,2013-04-30 10:53:00,
2013-04-30 04:58:00,40.6,30.5,29.44,NNW,331,0.0,3.0,67,0.00,,,0.00,Wunderground v.1.15,2013-04-30 10:58:00,
2013-04-30 05:03:00,40.2,30.1,29.44,NNW,331,0.0,0.0,67,0.00,,,0.00,Wunderground v.1.15,2013-04-30 11:03:00,
2013-04-30 05:08:00,40.1,30.7,29.44,NNW,331,0.0,0.0,69,0.00,,,0.00,Wunderground v.1.15,2013-04-30 11:08:00,
2013-04-30 05:13:00,40.2,30.1,29.44,NNW,331,0.0,0.0,67,0.00,,,0.00,Wunderground v.1.15,2013-04-30 11:13:00,
2013-04-30 05:18:00,39.6,29.5,29.44,NNW,331,0.0,0.0,67,0.00,,,0.00,Wunderground v.1.15,2013-04-30 11:18:00,
2013-04-30 05:23:00,39.2,28.8,29.44,NNW,331,0.0,0.0,66,0.00,,,0.00,Wunderground v.1.15,2013-04-30 11:23:00,
2013-04-30 05:28:00,39.1,29.1,29.44,NNW,331,0.0,3.0,67,0.00,,,0.00,Wunderground v.1.15,2013-04-30 11:28:00,
2013-04-30 05:33:00,39.2,29.5,29.44,NNW,331,0.0,0.0,68,0.00,,,0.00,Wunderground v.1.15,2013-04-30 11:33:00,
2013-04-30 05:38:00,39.3,29.3,29.45,NNW,331,0.0,0.0,67,0.00,,,0.00,Wunderground v.1.15,2013-04-30 11:38:00,
2013-04-30 05:43:00,39.6,30.6,29.45,NNW,331,0.0,0.0,70,0.00,,,0.00,Wunderground v.1.15,2013-04-30 11:43:00,
2013-04-30 05:48:00,39.3,30.3,29.45,NNW,331,0.0,0.0,70,0.00,,,0.00,Wunderground v.1.15,2013-04-30 11:48:00,
2013-04-30 05:53:00,39.5,30.5,29.45,NNW,331,0.0,0.0,70,0.00,,,0.00,Wunderground v.1.15,2013-04-30 11:53:00,
2013-04-30 05:58:00,39.6,30.6,29.45,NNW,331,0.0,0.0,70,0.00,,,0.00,Wunderground v.1.15,2013-04-30 11:58:00,
2013-04-30 06:03:00,39.2,29.9,29.45,NNW,331,0.0,0.0,69,0.00,,,0.00,Wunderground v.1.15,2013-04-30 12:03:00,
2013-04-30 06:08:00,39.2,30.2,29.46,NNW,331,0.0,0.0,70,0.00,,,0.00,Wunderground v.1.15,2013-04-30 12:08:00,
2013-04-30 06:13:00,39.2,30.2,29.46,NNW,331,0.0,0.0,70,0.00,,,0.00,Wunderground v.1.15,2013-04-30 12:13:00,
2013-04-30 06:18:00,39.1,29.8,29.46,NNW,331,0.0,0.0,69,0.00,,,0.00,Wunderground v.1.15,2013-04-30 12:18:00,
2013-04-30 06:23:00,39.1,30.8,29.47,NNW,331,0.0,0.0,72,0.00,,,0.00,Wunderground v.1.15,2013-04-30 12:23:00,
2013-04-30 06:28:00,39.2,30.9,29.47,NNW,331,0.0,0.0,72,0.00,,,0.00,Wunderground v.1.15,2013-04-30 12:28:00,
2013-04-30 06:33:00,39.2,30.2,29.47,NNW,331,0.0,0.0,70,0.00,,,0.00,Wunderground v.1.15,2013-04-30 12:33:00,
2013-04-30 06:38:00,39.5,30.2,29.47,NNW,331,0.0,0.0,69,0.00,,,0.00,Wunderground v.1.15,2013-04-30 12:38:00,
2013-04-30 06:43:00,39.5,30.2,29.47,NNW,331,0.0,0.0,69,0.00,,,0.00,Wunderground v.1.15,2013-04-30 12:43:00,
2013-04-30 06:48:00,39.9,31.3,29.47,NNW,331,0.0,0.0,71,0.00,,,0.00,Wunderground v.1.15,2013-04-30 12:48:00,
2013-04-30 06:53:00,40.9,32.6,29.49,NNW,331,0.0,0.0,72,0.00,,,0.00,Wunderground v.1.15,2013-04-30 12:53:00,
2013-04-30 06:58:00,42.5,33.0,29.49,NNW,331,0.0,0.0,69,0.00,,,0.00,Wunderground v.1.15,2013-04-30 12:58:00,
2013-04-30 07:03:00,43.8,32.8,29.47,NNW,331,0.0,0.0,65,0.00,,,0.00,Wunderground v.1.15,2013-04-30 13:03:00,
2013-04-30 07:08:00,44.6,33.6,29.47,NNW,331,0.0,0.0,65,0.00,,,0.00,Wunderground v.1.15,2013-04-30 13:08:00,
2013-04-30 07:13:00,45.4,34.3,29.47,NNW,331,0.0,0.0,65,0.00,,,0.00,Wunderground v.1.15,2013-04-30 13:13:00,
2013-04-30 07:18:00,47.0,33.4,29.51,NNW,331,0.0,0.0,59,0.00,,,0.00,Wunderground v.1.15,2013-04-30 13:18:00,
2013-04-30 07:23:00,48.8,31.9,29.51,NNW,331,0.0,0.0,52,0.00,,,0.00,Wunderground v.1.15,2013-04-30 13:23:00,
2013-04-30 07:28:00,50.8,31.3,29.51,NNW,331,0.0,0.0,47,0.00,,,0.00,Wunderground v.1.15,2013-04-30 13:28:00,
2013-04-30 07:33:00,52.3,31.0,29.48,NNW,331,0.0,0.0,44,0.00,,,0.00,Wunderground v.1.15,2013-04-30 13:33:00,
2013-04-30 07:38:00,53.8,30.6,29.48,NNW,331,0.0,0.0,41,0.00,,,0.00,Wunderground v.1.15,2013-04-30 13:38:00,
2013-04-30 07:43:00,55.1,29.3,29.48,NNW,331,0.0,0.0,37,0.00,,,0.00,Wunderground v.1.15,2013-04-30 13:43:00,
2013-04-30 07:48:00,56.0,30.7,29.46,NNW,331,0.0,0.0,38,0.00,,,0.00,Wunderground v.1.15,2013-04-30 13:48:00,
2013-04-30 07:53:00,56.9,28.8,29.46,NNW,331,0.0,0.0,34,0.00,,,0.00,Wunderground v.1.15,2013-04-30 13:53:00,
2013-04-30 07:58:00,57.6,28.7,29.46,NNW,331,0.0,0.0,33,0.00,,,0.00,Wunderground v.1.15,2013-04-30 13:58:00,
2013-04-30 08:03:00,58.1,28.4,29.45,NNW,331,0.0,0.0,32,0.00,,,0.00,Wunderground v.1.15,2013-04-30 14:03:00,
2013-04-30 08:08:00,58.6,27.2,29.45,NNW,331,0.0,0.0,30,0.00,,,0.00,Wunderground v.1.15,2013-04-30 14:08:00,
2013-04-30 08:13:00,59.6,26.4,29.45,NNW,331,0.0,0.0,28,0.00,,,0.00,Wunderground v.1.15,2013-04-30 14:13:00,
2013-04-30 08:18:00,60.9,27.5,29.45,NNW,331,2.0,3.0,28,0.00,,,0.00,Wunderground v.1.15,2013-04-30 14:18:00,
2013-04-30 08:23:00,61.6,26.3,29.45,NNW,331,0.0,0.0,26,0.00,,,0.00,Wunderground v.1.15,2013-04-30 14:23:00,
2013-04-30 08:28:00,61.8,26.5,29.45,NNW,331,0.0,0.0,26,0.00,,,0.00,Wunderground v.1.15,2013-04-30 14:28:00,
2013-04-30 08:33:00,62.1,27.7,29.44,NNW,331,0.0,2.0,27,0.00,,,0.00,Wunderground v.1.15,2013-04-30 14:33:00,
2013-04-30 08:38:00,62.3,28.7,29.44,NNW,331,0.0,2.0,28,0.00,,,0.00,Wunderground v.1.15,2013-04-30 14:38:00,
2013-04-30 08:44:00,62.7,29.1,29.44,NNW,331,2.0,3.0,28,0.00,,,0.00,Wunderground v.1.15,2013-04-30 14:44:00,
2013-04-30 08:49:00,62.7,28.2,29.44,NNW,331,0.0,3.0,27,0.00,,,0.00,Wunderground v.1.15,2013-04-30 14:49:00,
2013-04-30 08:54:00,63.1,28.5,29.44,NNW,331,0.0,0.0,27,0.00,,,0.00,Wunderground v.1.15,2013-04-30 14:54:00,
2013-04-30 08:59:00,63.4,27.9,29.44,NNW,331,0.0,0.0,26,0.00,,,0.00,Wunderground v.1.15,2013-04-30 14:59:00,
2013-04-30 09:04:00,63.5,28.9,29.43,NNW,331,0.0,0.0,27,0.00,,,0.00,Wunderground v.1.15,2013-04-30 15:04:00,
2013-04-30 09:09:00,63.9,29.2,29.43,NNW,331,0.0,0.0,27,0.00,,,0.00,Wunderground v.1.15,2013-04-30 15:09:00,
2013-04-30 09:14:00,63.9,30.1,29.43,NNW,331,2.0,2.0,28,0.00,,,0.00,Wunderground v.1.15,2013-04-30 15:14:00,
2013-04-30 09:19:00,63.9,30.1,29.41,NNW,331,0.0,2.0,28,0.00,,,0.00,Wunderground v.1.15,2013-04-30 15:19:00,
2013-04-30 09:24:00,64.0,30.2,29.41,NNW,331,0.0,0.0,28,0.00,,,0.00,Wunderground v.1.15,2013-04-30 15:24:00,
2013-04-30 09:29:00,64.7,29.9,29.41,NNW,331,0.0,2.0,27,0.00,,,0.00,Wunderground v.1.15,2013-04-30 15:29:00,
2013-04-30 09:34:00,64.8,30.0,29.40,NNW,331,0.0,0.0,27,0.00,,,0.00,Wunderground v.1.15,2013-04-30 15:34:00,
2013-04-30 09:39:00,65.3,29.5,29.40,NNW,331,0.0,0.0,26,0.00,,,0.00,Wunderground v.1.15,2013-04-30 15:39:00,
2013-04-30 09:44:00,65.6,30.7,29.40,NNW,331,0.0,0.0,27,0.00,,,0.00,Wunderground v.1.15,2013-04-30 15:44:00,
2013-04-30 09:49:00,65.8,30.9,29.40,NNW,331,2.0,3.0,27,0.00,,,0.00,Wunderground v.1.15,2013-04-30 15:49:00,
2013-04-30 09:54:00,65.6,31.6,29.40,NNW,333,4.0,5.0,28,0.00,,,0.00,Wunderground v.1.15,2013-04-30 15:54:00,
2013-04-30 09:59:00,65.5,31.5,29.40,NNW,338,4.0,8.0,28,0.00,,,0.00,Wunderground v.1.15,2013-04-30 15:59:00,
2013-04-30 10:04:00,65.3,31.3,29.40,NNW,340,1.0,5.0,28,0.00,,,0.00,Wunderground v.1.15,2013-04-30 16:04:00,
2013-04-30 10:09:00,65.5,31.5,29.40,NW,310,4.0,5.0,28,0.00,,,0.00,Wunderground v.1.15,2013-04-30 16:09:00,
2013-04-30 10:14:00,66.0,31.9,29.40,NW,311,2.0,4.0,28,0.00,,,0.00,Wunderground v.1.15,2013-04-30 16:14:00,
2013-04-30 10:19:00,66.4,32.3,29.42,NW,311,3.0,4.0,28,0.00,,,0.00,Wunderground v.1.15,2013-04-30 16:19:00,
2013-04-30 10:24:00,66.9,30.9,29.42,NW,311,2.0,3.0,26,0.00,,,0.00,Wunderground v.1.15,2013-04-30 16:24:00,
2013-04-30 10:29:00,66.9,30.9,29.42,NW,313,0.0,5.0,26,0.00,,,0.00,Wunderground v.1.15,2013-04-30 16:29:00,
2013-04-30 10:34:00,66.9,28.9,29.40,NW,313,0.0,3.0,24,0.00,,,0.00,Wunderground v.1.15,2013-04-30 16:34:00,
2013-04-30 10:39:00,66.8,28.8,29.40,NW,313,0.0,3.0,24,0.00,,,0.00,Wunderground v.1.15,2013-04-30 16:39:00,
2013-04-30 10:44:00,66.8,26.7,29.40,NW,313,0.0,3.0,22,0.00,,,0.00,Wunderground v.1.15,2013-04-30 16:44:00,
2013-04-30 10:49:00,66.8,28.8,29.40,NW,313,0.0,3.0,24,0.00,,,0.00,Wunderground v.1.15,2013-04-30 16:49:00,
2013-04-30 10:54:00,67.3,29.2,29.40,NW,313,3.0,4.0,24,0.00,,,0.00,Wunderground v.1.15,2013-04-30 16:54:00,
2013-04-30 10:59:00,67.8,28.6,29.40,NW,313,2.0,4.0,23,0.00,,,0.00,Wunderground v.1.15,2013-04-30 16:59:00,
2013-04-30 11:04:00,68.1,28.9,29.40,NW,313,0.0,4.0,23,0.00,,,0.00,Wunderground v.1.15,2013-04-30 17:04:00,
2013-04-30 11:09:00,68.3,29.0,29.40,NW,313,1.0,4.0,23,0.00,,,0.00,Wunderground v.1.15,2013-04-30 17:09:00,
2013-04-30 11:14:00,68.1,28.9,29.40,NW,313,0.0,4.0,23,0.00,,,0.00,Wunderground v.1.15,2013-04-30 17:14:00,
2013-04-30 11:19:00,68.1,28.9,29.45,NW,313,1.0,5.0,23,0.00,,,0.00,Wunderground v.1.15,2013-04-30 17:19:00,
2013-04-30 11:24:00,68.1,28.9,29.45,NW,313,0.0,1.0,23,0.00,,,0.00,Wunderground v.1.15,2013-04-30 17:24:00,
2013-04-30 11:29:00,68.1,28.9,29.45,NW,313,1.0,3.0,23,0.00,,,0.00,Wunderground v.1.15,2013-04-30 17:29:00,
2013-04-30 11:34:00,68.1,28.9,29.44,NW,313,0.0,3.0,23,0.00,,,0.00,Wunderground v.1.15,2013-04-30 17:34:00,
2013-04-30 11:39:00,68.1,28.9,29.44,NW,313,2.0,3.0,23,0.00,,,0.00,Wunderground v.1.15,2013-04-30 17:39:00,
2013-04-30 11:44:00,68.1,27.8,29.44,NW,313,0.0,4.0,22,0.00,,,0.00,Wunderground v.1.15,2013-04-30 17:44:00,
2013-04-30 11:49:00,68.1,28.9,29.44,NW,313,1.0,5.0,23,0.00,,,0.00,Wunderground v.1.15,2013-04-30 17:49:00,
2013-04-30 11:54:00,68.4,29.1,29.44,NW,313,1.0,4.0,23,0.00,,,0.00,Wunderground v.1.15,2013-04-30 17:54:00,
2013-04-30 11:59:00,68.6,29.3,29.44,NW,313,0.0,5.0,23,0.00,,,0.00,Wunderground v.1.15,2013-04-30 17:59:00,
2013-04-30 12:04:00,69.1,28.6,29.44,NW,313,0.0,1.0,22,0.00,,,0.00,Wunderground v.1.15,2013-04-30 18:04:00,
2013-04-30 12:09:00,69.8,28.1,29.44,NNW,343,0.0,2.0,21,0.00,,,0.00,Wunderground v.1.15,2013-04-30 18:09:00,
2013-04-30 12:14:00,70.4,28.6,29.44,NNW,343,1.0,1.0,21,0.00,,,0.00,Wunderground v.1.15,2013-04-30 18:14:00,
2013-04-30 12:19:00,70.8,28.9,29.44,North,355,1.0,6.0,21,0.00,,,0.00,Wunderground v.1.15,2013-04-30 18:19:00,
2013-04-30 12:24:00,70.6,28.7,29.44,North,5,0.0,6.0,21,0.00,,,0.00,Wunderground v.1.15,2013-04-30 18:24:00,
2013-04-30 12:29:00,71.1,29.2,29.44,North,5,5.0,6.0,21,0.00,,,0.00,Wunderground v.1.15,2013-04-30 18:29:00,
2013-04-30 12:34:00,71.1,31.4,29.44,NNW,345,6.0,7.0,23,0.00,,,0.00,Wunderground v.1.15,2013-04-30 18:34:00,
2013-04-30 12:39:00,71.5,29.5,29.44,WNW,301,4.0,10.0,21,0.00,,,0.00,Wunderground v.1.15,2013-04-30 18:39:00,
2013-04-30 12:44:00,72.0,29.9,29.44,NW,319,0.0,9.0,21,0.00,,,0.00,Wunderground v.1.15,2013-04-30 18:44:00,
2013-04-30 12:49:00,72.1,31.1,29.42,WNW,288,0.0,9.0,22,0.00,,,0.00,Wunderground v.1.15,2013-04-30 18:49:00,
2013-04-30 12:54:00,72.3,32.4,29.42,WNW,288,2.0,4.0,23,0.00,,,0.00,Wunderground v.1.15,2013-04-30 18:54:00,
2013-04-30 12:59:00,72.5,32.6,29.42,WNW,295,0.0,4.0,23,0.00,,,0.00,Wunderground v.1.15,2013-04-30 18:59:00,
2013-04-30 13:04:00,72.5,31.5,29.41,WNW,296,0.0,3.0,22,0.00,,,0.00,Wunderground v.1.15,2013-04-30 19:04:00,
2013-04-30 13:09:00,72.5,31.5,29.41,NE,36,0.0,7.0,22,0.00,,,0.00,Wunderground v.1.15,2013-04-30 19:09:00,
2013-04-30 13:14:00,73.0,31.9,29.41,NE,41,1.0,6.0,22,0.00,,,0.00,Wunderground v.1.15,2013-04-30 19:14:00,
2013-04-30 13:19:00,73.9,31.5,29.40,ENE,78,0.0,6.0,21,0.00,,,0.00,Wunderground v.1.15,2013-04-30 19:19:00,
2013-04-30 13:24:00,74.0,31.6,29.40,NE,50,0.0,6.0,21,0.00,,,0.00,Wunderground v.1.15,2013-04-30 19:24:00,
2013-04-30 13:29:00,74.9,28.5,29.40,West,280,5.0,12.0,18,0.00,,,0.00,Wunderground v.1.15,2013-04-30 19:29:00,
2013-04-30 13:34:00,76.8,27.2,29.39,SSE,153,1.0,21.0,16,0.00,,,0.00,Wunderground v.1.15,2013-04-30 19:34:00,
2013-04-30 13:39:00,78.3,26.8,29.39,West,270,3.0,21.0,15,0.00,,,0.00,Wunderground v.1.15,2013-04-30 19:39:00,
2013-04-30 13:44:00,78.6,25.4,29.39,WSW,243,6.0,12.0,14,0.00,,,0.00,Wunderground v.1.15,2013-04-30 19:44:00,
2013-04-30 13:49:00,78.6,25.4,29.37,NW,313,5.0,19.0,14,0.00,,,0.00,Wunderground v.1.15,2013-04-30 19:49:00,
2013-04-30 13:54:00,78.8,27.2,29.37,WSW,251,15.0,17.0,15,0.00,,,0.00,Wunderground v.1.15,2013-04-30 19:54:00,
2013-04-30 13:59:00,79.6,26.2,29.37,WSW,252,12.0,21.0,14,0.00,,,0.00,Wunderground v.1.15,2013-04-30 19:59:00,
2013-04-30 14:04:00,80.3,24.9,29.36,West,280,13.0,20.0,13,0.00,,,0.00,Wunderground v.1.15,2013-04-30 20:04:00,
2013-04-30 14:09:00,81.1,27.4,29.36,NW,309,10.0,20.0,14,0.00,,,0.00,Wunderground v.1.15,2013-04-30 20:09:00,
2013-04-30 14:15:00,81.8,26.1,29.36,NW,311,16.0,18.0,13,0.00,,,0.00,Wunderground v.1.15,2013-04-30 20:15:00,
2013-04-30 14:20:00,81.8,24.2,29.36,WNW,303,8.0,20.0,12,0.00,,,0.00,Wunderground v.1.15,2013-04-30 20:20:00,
2013-04-30 14:25:00,81.8,26.1,29.36,WSW,252,10.0,17.0,13,0.00,,,0.00,Wunderground v.1.15,2013-04-30 20:25:00,
2013-04-30 14:30:00,82.0,26.3,29.36,WNW,284,3.0,17.0,13,0.00,,,0.00,Wunderground v.1.15,2013-04-30 20:30:00,
2013-04-30 14:35:00,82.0,24.4,29.36,North,355,4.0,13.0,12,0.00,,,0.00,Wunderground v.1.15,2013-04-30 20:35:00,
2013-04-30 14:40:00,82.0,24.4,29.36,WNW,284,13.0,22.0,12,0.00,,,0.00,Wunderground v.1.15,2013-04-30 20:40:00,
2013-04-30 14:45:00,81.8,24.2,29.36,WSW,242,7.0,18.0,12,0.00,,,0.00,Wunderground v.1.15,2013-04-30 20:45:00,
2013-04-30 14:50:00,82.0,24.4,29.36,WNW,286,13.0,19.0,12,0.00,,,0.00,Wunderground v.1.15,2013-04-30 20:50:00,
2013-04-30 14:55:00,82.0,24.4,29.36,West,273,5.0,20.0,12,0.00,,,0.00,Wunderground v.1.15,2013-04-30 20:55:00,
2013-04-30 15:00:00,82.0,22.3,29.36,WSW,246,9.0,9.0,11,0.00,,,0.00,Wunderground v.1.15,2013-04-30 21:00:00,
2013-04-30 15:05:00,82.2,24.5,29.36,West,265,9.0,20.0,12,0.00,,,0.00,Wunderground v.1.15,2013-04-30 21:05:00,
2013-04-30 15:10:00,82.6,22.7,29.36,West,277,15.0,15.0,11,0.00,,,0.00,Wunderground v.1.15,2013-04-30 21:10:00,
2013-04-30 15:15:00,82.0,24.4,29.36,West,267,4.0,22.0,12,0.00,,,0.00,Wunderground v.1.15,2013-04-30 21:15:00,
2013-04-30 15:20:00,82.0,22.3,29.38,West,271,8.0,11.0,11,0.00,,,0.00,Wunderground v.1.15,2013-04-30 21:20:00,
2013-04-30 15:25:00,81.8,22.1,29.38,WSW,252,4.0,21.0,11,0.00,,,0.00,Wunderground v.1.15,2013-04-30 21:25:00,
2013-04-30 15:30:00,81.6,24.0,29.38,SSW,198,11.0,12.0,12,0.00,,,0.00,Wunderground v.1.15,2013-04-30 21:30:00,
2013-04-30 15:35:00,81.8,24.2,29.37,West,278,9.0,17.0,12,0.00,,,0.00,Wunderground v.1.15,2013-04-30 21:35:00,
2013-04-30 15:40:00,82.4,24.7,29.37,West,273,10.0,12.0,12,0.00,,,0.00,Wunderground v.1.15,2013-04-30 21:40:00,
2013-04-30 15:45:00,82.6,24.8,29.37,WNW,283,4.0,17.0,12,0.00,,,0.00,Wunderground v.1.15,2013-04-30 21:45:00,
2013-04-30 15:50:00,82.4,24.7,29.36,West,275,9.0,15.0,12,0.00,,,0.00,Wunderground v.1.15,2013-04-30 21:50:00,
2013-04-30 15:55:00,82.0,24.4,29.36,WSW,240,10.0,15.0,12,0.00,,,0.00,Wunderground v.1.15,2013-04-30 21:55:00,
2013-04-30 16:00:00,81.8,24.2,29.36,WSW,253,11.0,11.0,12,0.00,,,0.00,Wunderground v.1.15,2013-04-30 22:00:00,
2013-04-30 16:05:00,82.4,24.7,29.35,SSW,192,6.0,19.0,12,0.00,,,0.00,Wunderground v.1.15,2013-04-30 22:05:00,
2013-04-30 16:10:00,82.6,22.7,29.35,SSE,160,10.0,12.0,11,0.00,,,0.00,Wunderground v.1.15,2013-04-30 22:10:00,
2013-04-30 16:15:00,81.8,22.1,29.35,SSE,155,6.0,16.0,11,0.00,,,0.00,Wunderground v.1.15,2013-04-30 22:15:00,
2013-04-30 16:20:00,82.4,24.7,29.35,WSW,252,7.0,10.0,12,0.00,,,0.00,Wunderground v.1.15,2013-04-30 22:20:00,
2013-04-30 16:25:00,83.6,23.5,29.35,SW,228,10.0,13.0,11,0.00,,,0.00,Wunderground v.1.15,2013-04-30 22:25:00,
2013-04-30 16:30:00,83.0,23.0,29.35,SSW,200,6.0,6.0,11,0.00,,,0.00,Wunderground v.1.15,2013-04-30 22:30:00,
2013-04-30 16:35:00,83.0,23.0,29.35,SSW,208,7.0,18.0,11,0.00,,,0.00,Wunderground v.1.15,2013-04-30 22:35:00,
2013-04-30 16:40:00,82.2,24.5,29.35,SW,225,1.0,7.0,12,0.00,,,0.00,Wunderground v.1.15,2013-04-30 22:40:00,
2013-04-30 16:45:00,81.2,23.7,29.35,SW,217,5.0,12.0,12,0.00,,,0.00,Wunderground v.1.15,2013-04-30 22:45:00,
2013-04-30 16:50:00,80.7,23.3,29.35,South,190,4.0,7.0,12,0.00,,,0.00,Wunderground v.1.15,2013-04-30 22:50:00,
2013-04-30 16:55:00,81.2,23.7,29.35,West,267,8.0,13.0,12,0.00,,,0.00,Wunderground v.1.15,2013-04-30 22:55:00,
2013-04-30 17:00:00,82.2,22.4,29.35,SSW,202,8.0,11.0,11,0.00,,,0.00,Wunderground v.1.15,2013-04-30 23:00:00,
2013-04-30 17:05:00,82.4,24.7,29.34,West,278,9.0,18.0,12,0.00,,,0.00,Wunderground v.1.15,2013-04-30 23:05:00,
2013-04-30 17:10:00,82.2,24.5,29.34,SW,223,10.0,13.0,12,0.00,,,0.00,Wunderground v.1.15,2013-04-30 23:10:00,
2013-04-30 17:15:00,81.1,23.7,29.34,SSW,205,14.0,21.0,12,0.00,,,0.00,Wunderground v.1.15,2013-04-30 23:15:00,
2013-04-30 17:20:00,80.1,22.9,29.37,SW,214,5.0,12.0,12,0.00,,,0.00,Wunderground v.1.15,2013-04-30 23:20:00,
2013-04-30 17:25:00,80.1,22.9,29.37,West,275,12.0,14.0,12,0.00,,,0.00,Wunderground v.1.15,2013-04-30 23:25:00,
2013-04-30 17:30:00,81.1,23.7,29.37,South,182,2.0,16.0,12,0.00,,,0.00,Wunderground v.1.15,2013-04-30 23:30:00,
2013-04-30 17:35:00,81.8,24.2,29.35,NW,306,7.0,16.0,12,0.00,,,0.00,Wunderground v.1.15,2013-04-30 23:35:00,
2013-04-30 17:40:00,82.0,24.4,29.35,WSW,249,23.0,25.0,12,0.00,,,0.00,Wunderground v.1.15,2013-04-30 23:40:00,
2013-04-30 17:45:00,81.6,24.0,29.35,WNW,283,12.0,25.0,12,0.00,,,0.00,Wunderground v.1.15,2013-04-30 23:45:00,
2013-04-30 17:50:00,80.7,25.3,29.35,WNW,282,7.0,12.0,13,0.00,,,0.00,Wunderground v.1.15,2013-04-30 23:50:00,
2013-04-30 17:55:00,79.6,24.4,29.35,WSW,242,7.0,20.0,13,0.00,,,0.00,Wunderground v.1.15,2013-04-30 23:55:00,
2013-04-30 18:00:00,79.0,23.9,29.35,West,274,14.0,14.0,13,0.00,,,0.00,Wunderground v.1.15,2013-05-01 00:00:00,
2013-04-30 18:05:00,78.6,23.6,29.37,West,271,7.0,16.0,13,0.00,,,0.00,Wunderground v.1.15,2013-05-01 00:05:00,
2013-04-30 18:10:00,78.5,23.5,29.37,SSW,200,4.0,9.0,13,0.00,,,0.00,Wunderground v.1.15,2013-05-01 00:10:00,
2013-04-30 18:15:00,78.3,23.4,29.37,SSE,168,7.0,14.0,13,0.00,,,0.00,Wunderground v.1.15,2013-05-01 00:15:00,
2013-04-30 18:20:00,78.3,23.4,29.35,South,181,4.0,7.0,13,0.00,,,0.00,Wunderground v.1.15,2013-05-01 00:20:00,
2013-04-30 18:25:00,78.3,25.1,29.35,SSW,200,2.0,10.0,14,0.00,,,0.00,Wunderground v.1.15,2013-05-01 00:25:00,
2013-04-30 18:30:00,78.5,25.3,29.35,SW,217,4.0,8.0,14,0.00,,,0.00,Wunderground v.1.15,2013-05-01 00:30:00,
2013-04-30 18:35:00,78.6,25.4,29.35,West,270,4.0,16.0,14,0.00,,,0.00,Wunderground v.1.15,2013-05-01 00:35:00,
2013-04-30 18:40:00,78.5,25.3,29.35,WSW,238,5.0,6.0,14,0.00,,,0.00,Wunderground v.1.15,2013-05-01 00:40:00,
2013-04-30 18:45:00,78.1,25.0,29.35,West,275,5.0,14.0,14,0.00,,,0.00,Wunderground v.1.15,2013-05-01 00:45:00,
2013-04-30 18:50:00,77.7,24.7,29.35,WNW,288,9.0,10.0,14,0.00,,,0.00,Wunderground v.1.15,2013-05-01 00:50:00,
2013-04-30 18:55:00,77.4,24.4,29.35,West,263,2.0,10.0,14,0.00,,,0.00,Wunderground v.1.15,2013-05-01 00:55:00,
2013-04-30 19:00:00,76.8,25.6,29.35,North,5,8.0,11.0,15,0.00,,,0.00,Wunderground v.1.15,2013-05-01 01:00:00,
2013-04-30 19:05:00,75.6,27.7,29.37,WNW,288,7.0,13.0,17,0.00,,,0.00,Wunderground v.1.15,2013-05-01 01:05:00,
2013-04-30 19:10:00,74.2,27.9,29.37,WNW,297,11.0,12.0,18,0.00,,,0.00,Wunderground v.1.15,2013-05-01 01:10:00,
2013-04-30 19:15:00,73.0,28.3,29.37,WNW,286,4.0,13.0,19,0.00,,,0.00,Wunderground v.1.15,2013-05-01 01:15:00,
2013-04-30 19:20:00,72.1,27.5,29.33,WNW,286,3.0,7.0,19,0.00,,,0.00,Wunderground v.1.15,2013-05-01 01:20:00,
2013-04-30 19:25:00,71.8,27.3,29.33,NW,305,3.0,12.0,19,0.00,,,0.00,Wunderground v.1.15,2013-05-01 01:25:00,
2013-04-30 19:30:00,71.6,27.1,29.33,WNW,283,3.0,5.0,19,0.00,,,0.00,Wunderground v.1.15,2013-05-01 01:30:00,
2013-04-30 19:35:00,71.3,26.9,29.34,West,280,4.0,12.0,19,0.00,,,0.00,Wunderground v.1.15,2013-05-01 01:35:00,
2013-04-30 19:40:00,71.1,26.7,29.34,West,274,5.0,5.0,19,0.00,,,0.00,Wunderground v.1.15,2013-05-01 01:40:00,
2013-04-30 19:45:00,70.9,26.5,29.34,West,268,3.0,10.0,19,0.00,,,0.00,Wunderground v.1.15,2013-05-01 01:45:00,
2013-04-30 19:50:00,70.9,26.5,29.35,West,267,5.0,6.0,19,0.00,,,0.00,Wunderground v.1.15,2013-05-01 01:50:00,
2013-04-30 19:55:00,70.6,26.3,29.35,West,271,1.0,6.0,19,0.00,,,0.00,Wunderground v.1.15,2013-05-01 01:55:00,
2013-04-30 20:00:00,70.4,26.1,29.35,West,271,4.0,7.0,19,0.00,,,0.00,Wunderground v.1.15,2013-05-01 02:00:00,
2013-04-30 20:05:00,70.1,27.1,29.35,West,270,5.0,7.0,20,0.00,,,0.00,Wunderground v.1.15,2013-05-01 02:05:00,
2013-04-30 20:10:00,69.9,27.0,29.35,WNW,290,5.0,9.0,20,0.00,,,0.00,Wunderground v.1.15,2013-05-01 02:10:00,
2013-04-30 20:15:00,69.8,26.9,29.35,West,268,3.0,9.0,20,0.00,,,0.00,Wunderground v.1.15,2013-05-01 02:15:00,
2013-04-30 20:20:00,69.8,26.9,29.32,WSW,252,1.0,6.0,20,0.00,,,0.00,Wunderground v.1.15,2013-05-01 02:20:00,
2013-04-30 20:25:00,69.6,26.7,29.32,West,273,4.0,7.0,20,0.00,,,0.00,Wunderground v.1.15,2013-05-01 02:25:00,
2013-04-30 20:30:00,69.3,26.5,29.32,West,273,4.0,4.0,20,0.00,,,0.00,Wunderground v.1.15,2013-05-01 02:30:00,
2013-04-30 20:35:00,69.1,26.3,29.35,West,277,6.0,14.0,20,0.00,,,0.00,Wunderground v.1.15,2013-05-01 02:35:00,
2013-04-30 20:40:00,69.1,27.5,29.35,WNW,285,5.0,8.0,21,0.00,,,0.00,Wunderground v.1.15,2013-05-01 02:40:00,
2013-04-30 20:45:00,69.1,27.5,29.35,West,281,7.0,15.0,21,0.00,,,0.00,Wunderground v.1.15,2013-05-01 02:45:00,
2013-04-30 20:50:00,69.1,27.5,29.35,WNW,284,4.0,10.0,21,0.00,,,0.00,Wunderground v.1.15,2013-05-01 02:50:00,
2013-04-30 20:55:00,69.1,27.5,29.35,West,272,12.0,14.0,21,0.00,,,0.00,Wunderground v.1.15,2013-05-01 02:55:00,
2013-04-30 21:01:00,68.8,27.2,29.35,WNW,294,11.0,11.0,21,0.00,,,0.00,Wunderground v.1.15,2013-05-01 03:01:00,
2013-04-30 21:05:00,68.6,27.1,29.37,WNW,284,8.0,14.0,21,0.00,,,0.00,Wunderground v.1.15,2013-05-01 03:05:00,
2013-04-30 21:10:00,68.4,28.0,29.37,WNW,295,11.0,11.0,22,0.00,,,0.00,Wunderground v.1.15,2013-05-01 03:10:00,
2013-04-30 21:16:00,68.3,28.0,29.37,WNW,283,10.0,15.0,22,0.00,,,0.00,Wunderground v.1.15,2013-05-01 03:16:00,
2013-04-30 21:21:00,68.1,28.9,29.38,NW,312,3.0,7.0,23,0.00,,,0.00,Wunderground v.1.15,2013-05-01 03:21:00,
2013-04-30 21:26:00,67.8,28.6,29.38,NNW,346,11.0,14.0,23,0.00,,,0.00,Wunderground v.1.15,2013-05-01 03:26:00,
2013-04-30 21:31:00,67.6,28.5,29.38,NNW,343,7.0,15.0,23,0.00,,,0.00,Wunderground v.1.15,2013-05-01 03:31:00,
2013-04-30 21:36:00,67.3,28.2,29.38,WNW,288,12.0,17.0,23,0.00,,,0.00,Wunderground v.1.15,2013-05-01 03:36:00,
2013-04-30 21:41:00,67.1,31.0,29.38,WNW,285,6.0,15.0,26,0.00,,,0.00,Wunderground v.1.15,2013-05-01 03:41:00,
2013-04-30 21:46:00,66.9,30.9,29.38,WNW,286,7.0,21.0,26,0.00,,,0.00,Wunderground v.1.15,2013-05-01 03:46:00,
2013-04-30 21:51:00,66.9,31.8,29.42,NW,312,11.0,14.0,27,0.00,,,0.00,Wunderground v.1.15,2013-05-01 03:51:00,
2013-04-30 21:56:00,66.6,34.2,29.42,WNW,289,13.0,20.0,30,0.00,,,0.00,Wunderground v.1.15,2013-05-01 03:56:00,
2013-04-30 22:01:00,66.1,32.0,29.42,WNW,302,10.0,16.0,28,0.00,,,0.00,Wunderground v.1.15,2013-05-01 04:01:00,
2013-04-30 22:06:00,65.5,35.6,29.44,NW,313,11.0,18.0,33,0.00,,,0.00,Wunderground v.1.15,2013-05-01 04:06:00,
2013-04-30 22:11:00,63.9,43.3,29.44,NW,323,12.0,18.0,47,0.00,,,0.00,Wunderground v.1.15,2013-05-01 04:11:00,
2013-04-30 22:16:00,61.6,42.8,29.44,NW,313,17.0,23.0,50,0.00,,,0.00,Wunderground v.1.15,2013-05-01 04:16:00,
2013-04-30 22:21:00,60.2,41.5,29.46,WNW,298,5.0,19.0,50,0.00,,,0.01,Wunderground v.1.15,2013-05-01 04:21:00,
2013-04-30 22:26:00,59.5,40.3,29.46,NNW,332,15.0,20.0,49,0.00,,,0.01,Wunderground v.1.15,2013-05-01 04:26:00,
2013-04-30 22:31:00,58.7,40.6,29.46,WNW,303,9.0,18.0,51,0.00,,,0.01,Wunderground v.1.15,2013-05-01 04:31:00,
2013-04-30 22:36:00,57.3,41.3,29.53,North,355,12.0,20.0,55,0.00,,,0.01,Wunderground v.1.15,2013-05-01 04:36:00,
2013-04-30 22:41:00,56.3,41.7,29.53,WNW,296,11.0,13.0,58,0.00,,,0.01,Wunderground v.1.15,2013-05-01 04:41:00,
2013-04-30 22:46:00,55.1,42.3,29.53,West,279,9.0,18.0,62,0.00,,,0.01,Wunderground v.1.15,2013-05-01 04:46:00,
2013-04-30 22:52:00,54.2,42.7,29.56,WNW,283,10.0,10.0,65,0.00,,,0.01,Wunderground v.1.15,2013-05-01 04:52:00,
2013-04-30 22:57:00,53.5,42.4,29.56,WNW,293,6.0,15.0,66,0.00,,,0.01,Wunderground v.1.15,2013-05-01 04:57:00,
2013-04-30 23:02:00,53.2,41.7,29.56,NNW,327,12.0,14.0,65,0.00,,,0.01,Wunderground v.1.15,2013-05-01 05:02:00,
2013-04-30 23:07:00,52.9,42.2,29.59,WNW,287,7.0,15.0,67,0.00,,,0.01,Wunderground v.1.15,2013-05-01 05:07:00,
2013-04-30 23:12:00,52.2,42.7,29.59,West,279,10.0,14.0,70,0.00,,,0.01,Wunderground v.1.15,2013-05-01 05:12:00,
2013-04-30 23:17:00,51.6,41.8,29.59,West,274,10.0,16.0,69,0.00,,,0.01,Wunderground v.1.15,2013-05-01 05:17:00,
2013-04-30 23:22:00,51.3,41.5,29.63,West,280,5.0,14.0,69,0.00,,,0.01,Wunderground v.1.15,2013-05-01 05:22:00,
2013-04-30 23:27:00,51.1,41.7,29.63,West,277,9.0,14.0,70,0.00,,,0.02,Wunderground v.1.15,2013-05-01 05:27:00,
2013-04-30 23:32:00,50.7,41.6,29.63,WNW,293,10.0,19.0,71,0.00,,,0.02,Wunderground v.1.15,2013-05-01 05:32:00,
2013-04-30 23:37:00,50.1,41.8,29.65,WNW,298,3.0,19.0,73,0.00,,,0.02,Wunderground v.1.15,2013-05-01 05:37:00,
2013-04-30 23:42:00,49.5,41.6,29.65,West,275,11.0,16.0,74,0.00,,,0.02,Wunderground v.1.15,2013-05-01 05:42:00,
2013-04-30 23:47:00,49.1,41.2,29.65,WNW,291,9.0,17.0,74,0.00,,,0.02,Wunderground v.1.15,2013-05-01 05:47:00,
2013-04-30 23:52:00,48.9,41.0,29.68,WNW,284,9.0,17.0,74,0.00,,,0.02,Wunderground v.1.15,2013-05-01 05:52:00,
2013-04-30 23:57:00,48.8,41.2,29.68,West,281,11.0,21.0,75,0.00,,,0.03,Wunderground v.1.15,2013-05-01 05:57:00,